F4ETJ-1 Weather Reports


time (UTC)temp
C
wind
direction
speed
KPH
gust
KPH
rain 1hr
cm
rain 24hr
cm
rain mn
cm
humidity
%
barometer
mb
20260506173522 13 271 8.0 12.9 0.00 1.78 1.78 86 1009.4
20260506172922 13 282 4.8 14.5 0.00 1.78 1.78 86 1009.3
20260506172321 13 284 4.8 9.7 0.00 1.78 1.78 86 1009.3
20260506171721 13 279 4.8 11.3 0.00 1.78 1.78 86 1009.3
20260506171121 13 278 4.8 9.7 0.00 1.78 1.78 86 1009.2
20260506170520 13 279 4.8 6.4 0.00 1.78 1.78 86 1009.2
20260506165920 13 286 6.4 9.7 0.00 1.78 1.78 85 1009.2
20260506165320 13 297 6.4 14.5 0.00 1.78 1.78 85 1009.1
20260506164719 13 301 4.8 8.0 0.00 1.78 1.78 86 1009.1
20260506164119 13 284 3.2 8.0 0.00 1.78 1.78 87 1009.1
20260506163519 13 303 4.8 8.0 0.00 1.78 1.78 87 1009.0
20260506162918 13 297 4.8 9.7 0.00 1.78 1.78 87 1009.0
20260506162318 13 309 6.4 11.3 0.00 1.78 1.78 87 1008.9
20260506161718 13 290 6.4 11.3 0.00 1.78 1.78 87 1008.9
20260506161118 13 289 6.4 12.9 0.00 1.78 1.78 87 1008.9
20260506160517 13 285 8.0 16.1 0.03 1.78 1.78 86 1009.0
20260506155917 13 293 9.7 16.1 0.03 1.78 1.78 86 1008.9
20260506155316 13 291 11.3 20.9 0.03 1.78 1.78 85 1008.9
20260506154716 14 344 9.7 16.1 0.03 1.78 1.78 85 1008.8
20260506154116 14 301 9.7 17.7 0.05 1.78 1.78 86 1008.8
20260506153515 13 326 6.4 12.9 0.05 1.78 1.78 87 1008.8
20260506152915 13 311 4.8 8.0 0.05 1.78 1.78 89 1008.8
20260506152315 13 326 4.8 8.0 0.05 1.78 1.78 89 1008.7
20260506151714 13 305 4.8 11.3 0.08 1.78 1.78 89 1008.7
20260506151114 13 297 4.8 9.7 0.10 1.78 1.78 89 1008.6
20260506150514 13 325 4.8 9.7 0.10 1.75 1.75 89 1008.6
20260506145913 13 320 4.8 11.3 0.10 1.75 1.75 90 1008.6
20260506145313 13 297 1.6 9.7 0.10 1.75 1.75 91 1008.7
20260506144713 13 24 0.0 1.6 0.10 1.75 1.75 91 1008.6
20260506144112 13 24 0.0 3.2 0.13 1.73 1.73 91 1008.6
20260506143512 13 22 0.0 1.6 0.23 1.73 1.73 91 1008.6
20260506142912 13 19 1.6 6.4 0.25 1.73 1.73 90 1008.7
20260506142311 13 315 1.6 4.8 0.41 1.73 1.73 91 1008.6
20260506141711 13 45 1.6 3.2 0.51 1.70 1.70 91 1008.6
20260506141111 13 51 0.0 3.2 0.48 1.68 1.68 91 1008.5
20260506140510 13 51 1.6 1.6 0.51 1.65 1.65 91 1008.5
20260506135910 13 51 1.6 3.2 0.53 1.65 1.65 91 1008.5
20260506135310 13 49 1.6 1.6 0.58 1.65 1.65 91 1008.5
20260506134709 13 49 3.2 3.2 0.81 1.65 1.65 91 1008.5
20260506134109 13 44 3.2 8.0 0.81 1.60 1.60 91 1008.5
20260506133509 13 322 3.2 4.8 0.71 1.50 1.50 91 1008.4
20260506132908 13 247 1.6 6.4 0.71 1.47 1.47 90 1008.4
20260506132308 13 272 0.0 1.6 0.56 1.32 1.32 90 1008.4
20260506131707 13 272 1.6 3.2 0.43 1.19 1.19 90 1008.4
20260506131107 13 272 1.6 3.2 0.43 1.19 1.19 90 1008.3
20260506130507 13 272 1.6 3.2 0.38 1.14 1.14 90 1008.3
20260506125907 13 272 4.8 4.8 0.36 1.12 1.12 89 1008.3
20260506125306 13 250 6.4 16.1 0.30 1.07 1.07 88 1008.3
20260506124706 13 327 3.2 16.1 0.08 0.84 0.84 87 1008.3
20260506124105 14 30 3.2 4.8 0.03 0.79 0.79 87 1008.2
20260506123505 14 30 4.8 6.4 0.03 0.79 0.79 87 1008.2
20260506122905 14 44 4.8 8.0 0.00 0.76 0.76 87 1008.1
20260506122306 14 14 4.8 9.7 0.00 0.76 0.76 86 1008.2
20260506121705 14 351 4.8 9.7 0.03 0.76 0.76 87 1008.1
20260506121104 13 339 6.4 9.7 0.13 0.76 0.76 88 1008.1
20260506120504 13 313 6.4 14.5 0.20 0.76 0.76 88 1008.1
20260506115903 13 354 6.4 12.9 0.25 0.76 0.76 89 1008.1
20260506115306 13 303 6.4 11.3 0.28 0.76 0.76 90 1008.2
20260506114702 13 345 6.4 12.9 0.28 0.76 0.76 90 1008.1
20260506114102 13 303 4.8 9.7 0.28 0.76 0.76 91 1008.2
20260506113502 13 336 6.4 16.1 0.28 0.76 0.76 91 1008.2
20260506112901 12 336 6.4 11.3 0.28 0.76 0.76 91 1008.2
20260506112301 12 326 8.0 16.1 0.30 0.76 0.76 91 1008.1
20260506111701 12 322 6.4 14.5 0.28 0.74 0.74 92 1008.1
20260506111100 12 328 8.0 14.5 0.18 0.64 0.64 92 1008.1
20260506110500 12 343 6.4 14.5 0.10 0.56 0.56 91 1008.2
20260506105900 12 2 6.4 11.3 0.05 0.51 0.51 92 1008.1
20260506105259 12 326 6.4 12.9 0.03 0.48 0.48 91 1008.0
20260506104659 12 358 6.4 11.3 0.03 0.48 0.48 90 1008.0
20260506104059 12 1 6.4 12.9 0.03 0.48 0.48 90 1007.9
20260506103458 13 359 4.8 12.9 0.03 0.48 0.48 89 1008.0
20260506102859 13 10 4.8 12.9 0.03 0.48 0.48 89 1007.9
20260506102258 13 334 6.4 14.5 0.00 0.46 0.46 89 1007.9
20260506101658 13 295 6.4 11.3 0.00 0.46 0.46 89 1007.9
20260506101057 13 299 8.0 11.3 0.00 0.46 0.46 90 1007.9
20260506100457 13 292 8.0 14.5 0.00 0.46 0.46 89 1007.9
20260506095856 13 265 6.4 14.5 0.00 0.46 0.46 89 1007.8
20260506095256 13 299 6.4 12.9 0.00 0.46 0.46 90 1007.8
20260506094656 13 338 6.4 14.5 0.00 0.46 0.46 90 1007.7
20260506094055 13 331 3.2 12.9 0.00 0.46 0.46 90 1007.6
20260506093455 13 30 3.2 6.4 0.00 0.46 0.46 92 1007.6
20260506092855 13 358 1.6 4.8 0.00 0.46 0.46 92 1007.5
20260506092254 12 16 3.2 4.8 0.00 0.46 0.46 93 1007.4
20260506091654 12 16 3.2 6.4 0.00 0.46 0.46 94 1007.4
20260506091054 12 20 1.6 4.8 0.03 0.46 0.46 94 1007.4
20260506090453 12 20 1.6 4.8 0.03 0.46 0.46 94 1007.3
20260506085853 12 20 3.2 4.8 0.03 0.46 0.46 95 1007.3
20260506085253 12 20 4.8 6.4 0.05 0.46 0.46 95 1007.2
20260506084652 12 20 4.8 8.0 0.05 0.46 0.46 95 1007.2
20260506084052 12 20 3.2 6.4 0.05 0.46 0.46 95 1007.2
20260506083452 12 19 3.2 8.0 0.05 0.46 0.46 95 1007.2
20260506082852 12 347 3.2 6.4 0.08 0.46 0.46 95 1007.1
20260506082251 12 333 3.2 8.0 0.10 0.46 0.46 95 1007.1
20260506081651 12 357 3.2 6.4 0.13 0.46 0.46 95 1007.1
20260506081050 12 105 1.6 3.2 0.15 0.43 0.43 95 1007.1
20260506080453 12 105 1.6 3.2 0.20 0.43 0.43 95 1007.1
20260506073448 11 105 3.2 6.4 0.30 0.41 0.41 95 1006.9
20260506072852 11 107 1.6 4.8 0.28 0.38 0.38 95 1006.9
20260506072248 11 107 1.6 4.8 0.25 0.36 0.36 95 1006.9
20260506071647 11 107 1.6 3.2 0.25 0.33 0.33 95 1006.9
20260506071047 11 107 1.6 4.8 0.25 0.28 0.28 95 1006.9
20260506070447 11 107 0.0 1.6 0.23 0.23 0.23 95 1006.9
20260506062245 10 97 1.6 4.8 0.10 0.10 0.10 95 1006.7
20260506061644 11 97 1.6 4.8 0.08 0.08 0.08 95 1006.6
20260506061043 10 105 1.6 4.8 0.03 0.03 0.03 94 1006.6
20260506060444 10 105 3.2 6.4 0.00 0.00 0.00 94 1006.6
20260506051040 10 124 1.6 1.6 0.00 0.00 0.00 94 1006.3
20260505232357 10 174 0.0 1.6 0.00 0.03 0.03 90 1007.8
20260505231756 11 174 0.0 0.0 0.00 0.03 0.03 89 1007.8
20260505231155 11 174 1.6 1.6 0.00 0.03 0.03 89 1007.9
20260505225955 11 174 1.6 4.8 0.00 0.03 0.03 89 1008.0
20260505225355 11 174 1.6 3.2 0.00 0.03 0.03 88 1008.0
20260505224755 11 199 1.6 8.0 0.00 0.03 0.03 88 1008.0
20260505222354 11 192 0.0 4.8 0.00 0.03 0.03 87 1008.2
20260505220652 11 207 0.0 1.6 0.00 0.03 0.03 87 1008.2
20260505220553 11 207 0.0 1.6 0.00 0.03 0.03 87 1008.2
20260505215352 11 197 0.0 1.6 0.00 0.03 0.03 86 1008.3
20260505214152 11 156 0.0 0.0 0.00 0.03 0.03 85 1008.4
20260505212350 12 204 1.6 4.8 0.00 0.03 0.03 84 1008.5
20260505205949 12 211 0.0 1.6 0.00 0.03 0.03 83 1008.8
20260505205348 12 211 0.0 3.2 0.00 0.03 0.03 83 1008.9
20260505204748 12 230 0.0 3.2 0.00 0.03 0.03 83 1008.8
20260505204148 12 224 0.0 6.4 0.00 0.03 0.03 83 1008.8
20260505203549 12 226 0.0 1.6 0.00 0.03 0.03 82 1008.8
20260505202347 13 205 1.6 4.8 0.00 0.03 0.03 81 1008.8
20260505201746 13 226 1.6 8.0 0.00 0.03 0.03 81 1008.7
20260505201148 13 237 1.6 6.4 0.00 0.03 0.03 81 1008.7
20260505200549 13 218 0.0 6.4 0.00 0.03 0.03 81 1008.6
20260505194745 13 224 1.6 6.4 0.00 0.03 0.03 79 1008.5
20260505194145 13 240 3.2 6.4 0.00 0.03 0.03 79 1008.4
20260505193546 13 236 4.8 14.5 0.00 0.03 0.03 78 1008.4
20260505175939 15 267 9.7 20.9 0.00 0.03 0.03 72 1008.0
20260505174139 16 255 14.5 20.9 0.00 0.03 0.03 70 1008.0